User: anonymous   Login
Location: Limerick
(52.6800°N, 8.6400°W)
Time: 08:49:36
(UTC+00:00)
Language:

Sapphire - Orbit

View from above orbital plane
View from above orbital plane
View from above satellite
View from above satellite

Ground track
Ground track

The orbit data is extracted from the following two-line orbital elements,

1 26932U 01043D   16043.86868936  .00000020  00000-0  39646-4 0  9992
2 26932  67.0556 277.8803 0008528 282.5629  77.4518 14.30196198750258
Epoch (UTC): 12 February 2016 20:50:54
Eccentricity: 0.0008528
inclination: 67.0556°
perigee height: 785 km
apogee height: 797 km
right ascension of ascending node: 277.8803°
argument of perigee: 282.5629°
revolutions per day: 14.30196198
mean anomaly at epoch: 77.4518°
orbit number at epoch: 75025

The dashed part of the orbit path shows where the satellite is in the earth's shadow,  

DLR